METAR Formatted Surface Weather Observation
Issued by NWS Charleston, SC

Home | Current Version | Previous Version | Text Only | Print | Product List | Glossary On
Versions: 1 2 3 4 5 6 7 8 9 10 11 12 13 14 15 16 17 18 19 20 21 22 23 24 25 26 27 28
000
SAUS42 KCHS 230655
MTRSAV
METAR KSAV 230653Z AUTO 03004KT 4SM BR CLR 22/21 A2998 RMK AO2
SLP152 T02170211



USA.gov is the U.S. government's official web portal to all federal, state and local government web resources and services.